Niagara Falls International Airport Niagara Falls US
ICAO: KIAG
IATA: IAG
Category: Medium
Scheduled Services: No

Elevation: 589 ft
TransAlt. 18000 ft.

Airport Communications:
BUFFALO APP/DEP:126.5
ATIS:120.8
CLNC DEL:119.25
CTAF:118.5
GND:121.7
ANG OPS:26.19
914 AW COMD POST:34.002
PTD:37.22
TWR:118.5
UNICOM:122.95

KIAG Zoom In..

If you have problems with the map follow the link
https://www.worldairports.se/pages/airport.php?
ICAO=KIAG

Runways:

(A) RW 06 length 5188 ft width 150 ft
---- / hdg 60

(B) RW 10L length 9829 ft width 150 ft
---- / hdg 100

(C) RW 10R length 3973 ft width 75 ft
---- / hdg 100

(D) RW 24 length 5188 ft width 150 ft
---- / hdg 240

(E) RW 28L length 3973 ft width 75 ft
---- / hdg 280

(F) RW 28R length 9829 ft width 150 ft
ILS 110.10 / hdg 280

Location; KIAG
Day. 17 / Time. 01.53 Zulu
* Altimeter: 29.89
* Temperature: 01° c. 33.8°f.
* Wind from: 250° Speed 12 kn.
Dewpoint: -01° c.
Visibility: 5 Statute Miles.
Clouds: Broken 1300 ft.
Clouds: Overcast 2000 ft.
Conditions: Mist.

KIAG 170153Z 25012KT 5SM BR BKN013 OVC020 01/M01 A2989 RMK AO2 SLP136 T00111011


Wind From 250°
Speed 12 kn.

 
 
jpsmedia.com for Web Design worldairports.se 2018   terms of use